Location: Hawks Ness
(60.2333°N, 1.1667°W)
Time: 06:24:10
(UTC+00:00)

ARIANE 5 R/B - Pass Details

Date: 22 October 2019
Orbit: 748 x 795 km, 98.6° (Epoch: 10 November)

Event Time Altitude Azimuth Distance (km) Brightness Sun altitude
Rises 03:41:09 0° 17° (NNE) 3,215 6.3 -25.0°
Reaches altitude 10° 03:43:28 10° 15° (NNE) 2,284 5.4 -24.8°
Maximum altitude 03:48:25 63° 295° (WNW) 837 2.4 -24.2°
Enters shadow 03:48:27 63° 293° (WNW) 837 2.4 -24.2°
